Terug naar catalogus

COSMOS 1867 COOLANT

ActiefLEO
NORAD 39665·DEBRIS·🇷🇺 Russia

Gelanceerd Jul 10, 1987 vanaf Baikonur Cosmodrome

Loading…

Volgende Passages (komende 24 uur)

TLE

VerouderendSource: Space-Track

Epoch: Sep 12, 2026, 15:24 UTC

1 39665U 87060AC  26255.64192244  .00000134  00000-0  83927-4 0  9993
2 39665  65.0050 124.6778 0018303 282.5111  77.3927 14.33853314639825

Volg COSMOS 1867 COOLANT in realtime met AllMySat

Download on the App Store